CZ-6A DEB, 54598

Orbit data source: Space-Track

CZ-6A DEB, 54598 is space debris in SSO originally from a launch on Fri, 11 Nov 2022 UTC launched from the Taiyaun Space Center, China (TSC). Debris objects in space refer to the collection of defunct objects orbiting the Earth. Examples of debris include non-operational satellites, rocket bodies, and fragments generated from explosions, collisions, or faulty payload assembly.

Loading next visibility...
Identifier
54598, 2022-151MY
Orbit
SSO
Country
Flag of CNCN / PRC
Related business
Manufacturer
SAST
Mission
Spacecraft
Bus & Motor
Unknown
Mass
Unknown
Launch date (UTC)
2022-11-11 (4 years ago)
Launch vehicle
Unknown
Launch site
Taiyaun Space Center, China (TSC)
Object type
Payload
Rocket body
Debris
Shape & HBR
Unknown shape, 0.1 m
Radar Cross Section
Medium (>0.1 m² and <1 m²)

Expand to show TLE details & history
Last TLE update: 12 hours ago

TLE from 12 hours ago
0 CZ-6A DEB
1 54598U 22151MY  26236.30377007  .00025087  00000-0  24017-2 0  9996
2 54598  98.9003   5.1010 0036638  23.4020 336.8853 14.92664173200849
Epoch: 2026-08-24T07:17Z
TLE epoch observation values (Epoch: 2026-08-24T07:17:25.734Z)
Latitude
-0.00002°
Longitude
-76.84362°
Altitude
569.17 km
Speed
7.589 km/s
True Right ascension
00h 20m 24s
True Declination
0° 00' 00"
Sunlit
Object was in full shadow at epoch
Visualization orbit readout
Latitude
Unknown
Longitude
Unknown
Altitude
Unknown
Speed
Unknown
Apparent Right ascension
Unknown
Apparent Declination
Unknown
Sunlit
N/A
Visualization observer readout
Local Sidereal Time
10:49:19
Azimuth
Unknown
Elevation
Unknown
Doppler factor
Unknown
Orbital elements
Apogee altitude
612.222 km
Perigee altitude
561.186 km
Semi-major axis
6,964.841 km
Eccentricity
0.00366
Inclination
98.9003°
RAAN
5.101°
Arg. of periapsis
23.402°
True anomaly
336.71979°
Mean anomaly
336.8853°
Eccentric anomaly
336.80261°
Mean motion
3.73402 °/min
Orbital period
96.41 mins
BSTAR
0.0024017
Loading maneuver chart data...
Computing Atmospheric mass density...
Loading historical data...
Loading historical data...
Loading historical data...
Loading historical data...
Loading historical data...
Loading historical data...
Loading historical data...

Documentation

Showing up to 5 results
|